RV1CJ-14 Weather Reports


time (UTC)temp
F
wind
direction
speed
knots
gust
knots
rain 1hr
in
rain 24hr
in
rain mn
in
humidity
%
barometer
mb
20260507070009 50 157 0.0 4.3 0.00 0.00 0.00 48 1012.3
20260507065003 50 153 0.9 6.1 0.00 0.00 0.00 48 1012.2
20260507064003 50 166 0.0 3.5 0.00 0.00 0.00 49 1012.1
20260507063003 50 158 0.0 4.3 0.00 0.00 0.00 50 1012.0
20260507062006 49 160 0.9 5.2 0.00 0.00 0.00 50 1012.1
20260507061003 49 159 0.0 1.7 0.00 0.00 0.00 54 1012.2
20260507060003 49 164 0.0 2.6 0.00 0.00 0.00 56 1012.2
20260507055005 48 165 0.0 2.6 0.00 0.00 0.00 58 1012.0
20260507054004 48 164 0.0 2.6 0.00 0.00 0.00 60 1011.9
20260507053004 47 155 0.9 4.3 0.00 0.00 0.00 60 1011.9
20260507052003 47 157 0.0 2.6 0.00 0.00 0.00 62 1011.9
20260507051006 47 158 0.9 6.1 0.00 0.00 0.00 61 1012.0
20260507050003 47 358 0.9 2.6 0.00 0.00 0.00 63 1012.0
20260507045003 47 344 0.0 4.3 0.00 0.00 0.00 64 1012.0
20260507044003 47 344 0.0 1.7 0.00 0.00 0.00 64 1012.0
20260507043003 47 344 0.0 2.6 0.00 0.00 0.00 63 1012.0
20260507042003 46 344 0.0 1.7 0.00 0.00 0.00 65 1011.9
20260507041003 46 344 0.0 2.6 0.00 0.00 0.00 65 1012.0
20260507040003 45 343 0.0 2.6 0.00 0.00 0.00 67 1012.0
20260507035003 45 343 0.9 2.6 0.00 0.00 0.00 68 1012.0
20260507034003 45 341 0.0 3.5 0.00 0.00 0.00 67 1012.0
20260507033003 45 341 0.0 0.9 0.00 0.00 0.00 65 1012.0
20260507032003 45 341 0.0 1.7 0.00 0.00 0.00 64 1012.1
20260507031003 45 341 0.0 1.7 0.00 0.00 0.00 62 1012.0
20260507030003 45 341 0.0 1.7 0.00 0.00 0.00 60 1011.8
20260507025007 46 341 0.9 3.5 0.00 0.00 0.00 59 1011.8
20260507024003 46 341 0.0 1.7 0.00 0.00 0.00 58 1011.8
20260507023003 46 0 0.0 0.0 0.00 0.00 0.00 59 1011.9
20260507022003 46 0 0.0 0.0 0.00 0.00 0.00 59 1011.9
20260507021003 46 0 0.0 0.0 0.00 0.00 0.00 58 1011.8
20260507020003 46 0 0.0 0.0 0.00 0.00 0.00 58 1011.9
20260507015003 46 0 0.0 0.0 0.00 0.00 0.00 58 1011.9
20260507014003 46 0 0.0 0.0 0.00 0.00 0.00 58 1011.8
20260507013006 46 0 0.0 0.0 0.00 0.00 0.00 58 1011.8
20260507012003 46 0 0.0 0.0 0.00 0.00 0.00 58 1011.9
20260507011003 46 0 0.0 0.0 0.00 0.00 0.00 57 1011.9
20260507010005 46 0 0.0 0.0 0.00 0.00 0.00 57 1011.9
20260507005003 46 0 0.0 0.0 0.00 0.00 0.00 57 1011.9
20260507004003 46 0 0.0 0.0 0.00 0.00 0.00 58 1011.9
20260507003003 46 0 0.0 0.0 0.00 0.00 0.00 58 1011.9
20260507002003 46 0 0.0 0.0 0.00 0.00 0.00 58 1011.9
20260507001003 46 0 0.0 0.0 0.00 0.00 0.00 58 1011.8
20260507000004 46 0 0.0 0.0 0.00 0.00 0.00 58 1011.9
20260506235003 46 0 0.0 0.0 0.00 0.00 0.00 59 1011.8
20260506234003 46 0 0.0 0.0 0.00 0.00 0.00 59 1011.6
20260506233006 46 0 0.0 0.0 0.00 0.00 0.00 62 1011.8
20260506232003 46 0 0.0 0.0 0.00 0.00 0.00 63 1011.8
20260506231006 46 0 0.0 0.0 0.00 0.00 0.00 63 1011.7
20260506230003 46 0 0.0 0.0 0.00 0.00 0.00 64 1011.6
20260506225005 46 0 0.0 0.0 0.00 0.00 0.00 63 1011.5
20260506224003 46 0 0.0 0.0 0.00 0.00 0.00 62 1011.5
20260506223006 46 0 0.0 0.0 0.00 0.00 0.00 62 1011.6
20260506222003 46 0 0.0 0.0 0.00 0.00 0.00 62 1011.5
20260506221003 46 0 0.0 0.0 0.00 0.00 0.00 62 1011.4
20260506220003 46 0 0.0 0.0 0.00 0.00 0.00 62 1011.3
20260506215003 46 0 0.0 0.0 0.00 0.00 0.00 62 1011.4
20260506214003 46 0 0.0 0.0 0.00 0.00 0.00 61 1011.3
20260506213003 46 0 0.0 0.0 0.00 0.00 0.00 61 1011.3
20260506212003 46 0 0.0 0.0 0.00 0.00 0.00 63 1011.1
20260506211003 46 0 0.0 0.0 0.00 0.00 0.00 64 1011.0
20260506210003 46 0 0.0 0.0 0.00 0.00 0.00 65 1011.0
20260506205003 45 0 0.0 0.0 0.00 0.00 0.00 65 1010.9
20260506204003 45 0 0.0 0.0 0.00 0.00 0.00 65 1011.0
20260506203003 45 0 0.0 0.0 0.00 0.00 0.00 66 1011.0
20260506202003 45 0 0.0 0.0 0.00 0.00 0.00 66 1011.2
20260506201003 45 0 0.0 0.0 0.00 0.00 0.00 65 1011.3
20260506200003 46 0 0.0 0.0 0.00 0.00 0.00 64 1011.3
20260506195003 46 0 0.0 0.0 0.00 0.00 0.00 62 1011.4
20260506194004 46 0 0.0 0.0 0.00 0.00 0.00 60 1011.4
20260506193003 46 0 0.0 0.0 0.00 0.00 0.00 60 1011.3
20260506192005 46 0 0.0 0.0 0.00 0.00 0.00 61 1011.2
20260506191003 46 0 0.0 0.0 0.00 0.00 0.00 62 1011.2
20260506190004 46 0 0.0 0.0 0.00 0.00 0.00 62 1011.3
20260506185006 46 341 0.0 0.9 0.00 0.00 0.00 62 1011.3
20260506184003 46 341 0.0 2.6 0.00 0.00 0.00 62 1011.2
20260506183003 46 341 0.0 0.9 0.00 0.00 0.00 63 1011.3
20260506182003 46 0 0.0 0.0 0.00 0.00 0.00 63 1011.3
20260506181003 46 0 0.0 0.0 0.00 0.00 0.00 63 1011.3
20260506180004 46 341 0.0 1.7 0.00 0.00 0.00 63 1011.4
20260506175003 46 341 0.0 1.7 0.00 0.00 0.00 63 1011.4
20260506174003 46 341 0.0 0.9 0.00 0.00 0.00 64 1011.4
20260506173003 47 341 0.0 0.9 0.00 0.00 0.00 63 1011.4
20260506172003 47 341 0.0 0.9 0.00 0.00 0.00 60 1011.3
20260506171003 47 341 0.0 0.9 0.00 0.00 0.00 60 1011.3
20260506170003 47 341 0.9 2.6 0.00 0.00 0.00 59 1011.2
20260506165005 47 341 0.0 0.9 0.00 0.00 0.00 58 1011.1
20260506164003 47 0 0.0 0.0 0.00 0.00 0.00 57 1011.1
20260506163003 47 341 0.0 0.9 0.00 0.00 0.00 56 1011.1
20260506162003 47 341 0.0 2.6 0.00 0.00 0.00 54 1011.0
20260506161006 47 341 0.9 3.5 0.00 0.00 0.00 53 1011.0
20260506160003 48 341 0.9 3.5 0.00 0.00 0.00 50 1010.9
20260506155004 48 341 0.9 3.5 0.00 0.00 0.00 48 1010.9
20260506154003 48 341 0.0 1.7 0.00 0.00 0.00 49 1011.0
20260506153003 48 341 0.9 1.7 0.00 0.00 0.00 48 1011.0
20260506152003 48 341 0.0 1.7 0.00 0.00 0.00 49 1011.0
20260506151003 48 341 0.0 1.7 0.00 0.00 0.00 50 1011.0
20260506150003 48 341 0.9 2.6 0.00 0.00 0.00 49 1010.9
20260506145003 49 341 0.9 2.6 0.00 0.00 0.00 48 1010.9
20260506144003 49 341 0.9 3.5 0.00 0.00 0.00 48 1010.8
20260506143003 49 341 0.9 2.6 0.00 0.00 0.00 48 1010.8
20260506142003 49 342 0.9 6.1 0.00 0.00 0.00 49 1010.6
20260506141004 48 343 1.7 5.2 0.00 0.00 0.00 47 1010.6
20260506140003 48 341 0.9 5.2 0.00 0.00 0.00 51 1010.6
20260506135003 49 341 2.6 5.2 0.00 0.00 0.00 51 1010.5
20260506134003 50 341 0.9 3.5 0.00 0.00 0.00 48 1010.5
20260506133005 50 342 1.7 6.1 0.00 0.00 0.00 48 1010.5
20260506132003 50 342 0.9 4.3 0.00 0.00 0.00 47 1010.5
20260506131003 51 342 0.0 1.7 0.00 0.00 0.00 45 1010.4
20260506130004 50 342 0.9 3.5 0.00 0.00 0.00 43 1010.4
20260506125003 51 342 0.9 4.3 0.00 0.00 0.00 43 1010.3
20260506124003 50 342 0.9 2.6 0.00 0.00 0.00 43 1010.3
20260506123003 50 342 0.9 3.5 0.00 0.00 0.00 42 1010.3
20260506122003 50 342 1.7 3.5 0.00 0.00 0.00 45 1010.4
20260506121003 50 342 0.9 3.5 0.00 0.00 0.00 46 1010.3
20260506120003 50 342 0.9 3.5 0.00 0.00 0.00 47 1010.4
20260506115003 50 342 0.9 3.5 0.00 0.00 0.00 44 1010.3
20260506114006 50 342 0.9 3.5 0.00 0.00 0.00 45 1010.2
20260506113003 50 342 0.9 2.6 0.00 0.00 0.00 47 1010.3
20260506112003 50 342 0.9 3.5 0.00 0.00 0.00 46 1010.2
20260506111006 50 342 0.9 2.6 0.00 0.00 0.00 43 1010.2
20260506110003 50 342 0.9 3.5 0.00 0.00 0.00 47 1010.1
20260506105003 49 342 1.7 5.2 0.00 0.00 0.00 47 1010.0
20260506104003 49 343 1.7 6.1 0.00 0.00 0.00 48 1010.0
20260506103003 49 342 0.9 6.1 0.00 0.00 0.00 50 1009.8
20260506102003 49 342 1.7 5.2 0.00 0.00 0.00 50 1009.7
20260506101003 49 341 0.9 4.3 0.00 0.00 0.00 51 1009.6
20260506100003 49 341 2.6 7.0 0.00 0.00 0.00 50 1009.4
20260506095003 50 342 2.6 7.0 0.00 0.00 0.00 49 1009.3
20260506094003 51 349 0.9 5.2 0.00 0.00 0.00 50 1009.2
20260506093003 50 342 1.7 5.2 0.00 0.00 0.00 51 1009.1
20260506092003 51 342 0.9 3.5 0.00 0.00 0.00 54 1008.9
20260506091003 50 342 1.7 7.0 0.00 0.00 0.00 56 1008.6
20260506090003 51 342 0.9 5.2 0.00 0.00 0.00 55 1008.5
20260506085003 51 342 0.9 5.2 0.00 0.00 0.00 55 1008.4
20260506084003 51 341 0.9 4.3 0.00 0.00 0.00 60 1008.4
20260506083006 50 341 1.7 5.2 0.00 0.00 0.00 61 1008.3
20260506082004 50 342 0.9 3.5 0.00 0.00 0.00 64 1008.3
20260506081003 51 342 0.9 3.5 0.00 0.00 0.00 61 1008.2
20260506073003 50 342 0.9 2.6 0.00 0.00 0.00 67 1007.7
20260506072003 50 342 0.9 2.6 0.00 0.00 0.00 67 1007.6
20260506071003 49 342 0.9 2.6 0.00 0.00 0.00 71 1007.6